FW7766 Weather Reports


Display with metric or nautical units.
time (UTC)temp
F
wind
direction
speed
MPH
gust
MPH
rain 1hr
in
rain 24hr
in
rain mn
in
humidity
%
barometer
mb
20260901184105 91 270 1.0 2.0 0.00 0.00 0.00 39 1019.1
20260901183041 91 270 2.0 3.0 0.00 0.00 0.00 39 1019.3
20260901182038 91 270 2.0 3.0 0.00 0.00 0.00 39 1019.2
20260901181114 90 20 1.0 3.0 0.00 0.00 0.00 40 1019.3
20260901180031 90 328 1.0 3.0 0.00 0.00 0.00 40 1019.4
20260901175047 90 69 2.0 3.0 0.00 0.00 0.00 39 1019.5
20260901174024 90 270 2.0 3.0 0.00 0.00 0.00 39 1019.5
20260901173041 90 3 2.0 3.0 0.00 0.00 0.00 38 1019.5
20260901172017 90 293 2.0 4.0 0.00 0.00 0.00 41 1019.7
20260901171114 90 331 2.0 3.0 0.00 0.00 0.00 40 1019.8
20260901170111 91 0 1.0 3.0 0.00 0.00 0.00 39 1019.8
20260901165127 90 7 1.0 3.0 0.00 0.00 0.00 39 1019.9
20260901164104 91 326 1.0 2.0 0.00 0.00 0.00 39 1020.1
20260901163100 90 27 1.0 3.0 0.00 0.00 0.00 38 1020.2
20260901162057 90 0 1.0 3.0 0.00 0.00 0.00 39 1020.2
20260901161054 89 0 0.0 1.0 0.00 0.00 0.00 42 1020.3
20260901160050 88 23 0.0 2.0 0.00 0.00 0.00 45 1020.4
20260901155047 87 0 1.0 2.0 0.00 0.00 0.00 47 1020.5
20260901154043 86 0 0.0 2.0 0.00 0.00 0.00 48 1020.6
20260901153040 85 4 1.0 2.0 0.00 0.00 0.00 48 1020.8
20260901152037 84 0 1.0 3.0 0.00 0.00 0.00 48 1020.7
20260901151033 83 0 1.0 2.0 0.00 0.00 0.00 49 1020.9
20260901150030 83 0 1.0 2.0 0.00 0.00 0.00 52 1021.0
20260901145026 82 0.0 0.0 0.00 0.00 0.00 55 1021.1
20260901144043 82 0.0 0.0 0.00 0.00 0.00 55 1021.1
20260901143040 81 0.0 0.0 0.00 0.00 0.00 58 1021.1
20260901142016 80 0.0 0.0 0.00 0.00 0.00 58 1021.0
20260901141133 79 0 0.0 1.0 0.00 0.00 0.00 59 1021.0
20260901140109 78 0.0 1.0 0.00 0.00 0.00 60 1020.9
20260901135106 77 0.0 0.0 0.00 0.00 0.00 61 1021.0
20260901134102 76 0.0 0.0 0.00 0.00 0.00 62 1020.8
20260901133059 76 0.0 0.0 0.00 0.00 0.00 65 1020.9
20260901132056 75 0.0 0.0 0.00 0.00 0.00 66 1020.8
20260901131052 74 0.0 0.0 0.00 0.00 0.00 70 1020.8
20260901130049 73 0.0 0.0 0.00 0.00 0.00 82 1020.9
20260901125045 72 0.0 0.0 0.00 0.00 0.00 88 1020.8
20260901124102 72 0 1.0 1.0 0.00 0.00 0.00 93 1020.6
20260901123038 71 0.0 0.0 0.00 0.00 0.00 94 1020.7
20260901122035 71 0.0 0.0 0.00 0.00 0.00 94 1020.6
20260901121032 70 0.0 0.0 0.00 0.00 0.00 93 1020.6
20260901120028 70 0.0 0.0 0.00 0.00 0.00 93 1020.5
20260901115044 70 0.0 0.0 0.00 0.00 0.00 93 1020.4
20260901114021 70 0.0 0.0 0.00 0.00 0.00 93 1020.3
20260901113018 70 0.0 0.0 0.00 0.00 0.00 93 1020.2
20260901112114 70 0.0 0.0 0.00 0.00 0.00 92 1020.2
20260901111111 70 0.0 0.0 0.00 0.00 0.00 92 1020.1
20260901110108 70 0.0 0.0 0.00 0.00 0.00 92 1020.0
20260901105104 70 0.0 0.0 0.00 0.00 0.00 91 1019.9
20260901104101 70 0.0 0.0 0.00 0.00 0.00 92 1019.8
20260901103058 70 0.0 0.0 0.00 0.00 0.00 92 1019.7
20260901102054 70 0.0 0.0 0.00 0.00 0.00 92 1019.7
20260901101053 70 0.0 0.0 0.00 0.00 0.00 91 1019.5
20260901100047 70 0.0 0.0 0.00 0.00 0.00 91 1019.5
20260901095044 70 0.0 0.0 0.00 0.00 0.00 91 1019.4
20260901094040 70 0.0 0.0 0.00 0.00 0.00 91 1019.2
20260901093036 71 0.0 0.0 0.00 0.00 0.00 91 1019.3
20260901092053 71 0.0 0.0 0.00 0.00 0.00 91 1019.3
20260901091029 71 0.0 0.0 0.00 0.00 0.00 90 1019.5
20260901090026 71 0.0 0.0 0.00 0.00 0.00 89 1019.3
20260901085023 71 0.0 0.0 0.00 0.00 0.00 89 1019.3
20260901084019 71 0.0 0.0 0.00 0.00 0.00 89 1019.4
20260901083016 71 0.0 0.0 0.00 0.00 0.00 88 1019.5
20260901082133 71 0.0 0.0 0.00 0.00 0.00 88 1019.6
20260901081109 71 0.0 0.0 0.00 0.00 0.00 87 1019.5
20260901080106 71 0.0 0.0 0.00 0.00 0.00 87 1019.6
20260901075103 71 0.0 0.0 0.00 0.00 0.00 87 1019.6
20260901074119 71 0.0 0.0 0.00 0.00 0.00 86 1019.7
20260901073056 72 0.0 0.0 0.00 0.00 0.00 87 1019.9
20260901072052 71 0.0 0.0 0.00 0.00 0.00 86 1019.8
20260901071109 71 0.0 0.0 0.00 0.00 0.00 85 1019.8
20260901070045 71 0.0 0.0 0.00 0.00 0.00 85 1019.9
20260901065042 72 0.0 0.0 0.00 0.00 0.00 85 1019.9
20260901064038 72 0.0 0.0 0.00 0.00 0.00 83 1019.9
20260901063035 72 0.0 0.0 0.00 0.00 0.00 83 1020.1
20260901062031 72 0.0 0.0 0.00 0.00 0.00 83 1020.1
20260901061028 72 0.0 0.0 0.00 0.00 0.00 80 1020.2
20260901060024 73 0.0 0.0 0.00 0.00 0.00 79 1020.1
20260901055021 73 0.0 0.0 0.00 0.00 0.00 79 1020.1
20260901054017 73 0.0 0.0 0.00 0.00 0.00 78 1020.2
20260901053114 73 0.0 0.0 0.00 0.00 0.00 77 1020.1
20260901052111 73 0.0 0.0 0.00 0.00 0.00 74 1020.4
20260901051107 73 0.0 0.0 0.00 0.00 0.00 71 1020.3
20260901050104 73 0.0 0.0 0.00 0.00 0.00 69 1020.3
20260901045140 73 0.0 0.0 0.00 0.00 0.00 69 1020.2
20260901044057 73 0.0 0.0 0.00 0.00 0.00 69 1020.1
20260901043054 73 0.0 0.0 0.00 0.00 0.00 68 1020.0
20260901042050 73 0.0 0.0 0.00 0.00 0.00 68 1020.1
20260901041047 73 0.0 0.0 0.00 0.00 0.00 67 1020.0
20260901040044 73 0.0 0.0 0.00 0.00 0.00 67 1020.0
20260901035040 74 0.0 0.0 0.00 0.00 0.00 67 1020.0
20260901034117 74 0.0 0.0 0.00 0.00 0.00 67 1019.9
20260901033034 74 0.0 0.0 0.00 0.00 0.00 67 1019.9
20260901032031 74 0.0 0.0 0.00 0.00 0.00 67 1020.0
20260901031047 75 0.0 0.0 0.00 0.00 0.00 67 1020.0
20260901030024 75 0.0 0.0 0.00 0.00 0.00 66 1020.0
20260901025020 75 0.0 0.0 0.00 0.00 0.00 65 1019.9
20260901024017 75 0.0 0.0 0.00 0.00 0.00 65 1019.9
20260901023114 76 0.0 0.0 0.00 0.00 0.00 65 1020.0
20260901022110 76 0.0 0.0 0.00 0.00 0.00 65 1020.1
20260901021107 76 0.0 0.0 0.00 0.00 0.00 65 1019.9
20260901015100 77 0.0 0.0 0.00 0.00 0.00 63 1019.7
20260901014116 77 0.0 0.0 0.00 0.00 0.00 63 1019.7
20260901013053 78 0.0 0.0 0.00 0.00 0.00 62 1019.6
20260901012049 78 0.0 0.0 0.00 0.00 0.00 61 1019.4
20260901011045 78 0.0 0.0 0.00 0.00 0.00 62 1019.4
20260901010042 78 0.0 0.0 0.00 0.00 0.00 60 1019.3
20260901005039 80 0.0 0.0 0.00 0.00 0.00 59 1019.3
20260901004035 80 0.0 0.0 0.00 0.00 0.00 58 1019.1
20260901003031 80 0.0 0.0 0.00 0.00 0.00 58 1019.2
20260901002028 80 0.0 0.0 0.00 0.00 0.00 58 1019.2
20260901001024 81 0.0 0.0 0.00 0.00 0.00 58 1019.1
20260901000021 81 0.0 0.0 0.00 0.00 0.00 58 1019.1
20260831235018 82 0.0 0.0 0.00 0.00 0.00 55 1019.0
20260831234114 83 0.0 0.0 0.00 0.00 0.00 55 1018.8
20260831233111 84 0.0 0.0 0.00 0.00 0.00 52 1018.9
20260831232108 84 0.0 0.0 0.00 0.00 0.00 51 1018.9
20260831231104 85 0.0 0.0 0.00 0.00 0.00 51 1019.0
20260831230101 85 0.0 0.0 0.00 0.00 0.00 49 1019.1
20260831225118 86 0.0 0.0 0.00 0.00 0.00 51 1019.2
20260831224054 86 0.0 0.0 0.00 0.00 0.00 49 1019.1
20260831223051 86 0.0 0.0 0.00 0.00 0.00 49 1018.9
20260831222047 86 0.0 0.0 0.00 0.00 0.00 49 1019.1
20260831221044 87 90 1.0 1.0 0.00 0.00 0.00 48 1019.2
20260831220041 87 90 0.0 1.0 0.00 0.00 0.00 47 1019.2
20260831215037 87 0.0 1.0 0.00 0.00 0.00 47 1019.2
20260831214034 87 90 1.0 2.0 0.00 0.00 0.00 47 1019.2
20260831213051 87 0.0 0.0 0.00 0.00 0.00 46 1019.2
20260831212047 87 0.0 0.0 0.00 0.00 0.00 46 1019.2
20260831211023 87 0.0 0.0 0.00 0.00 0.00 47 1019.3
20260831210019 87 0.0 0.0 0.00 0.00 0.00 47 1019.4
20260831205016 86 90 0.0 1.0 0.00 0.00 0.00 48 1019.5
20260831204113 86 0.0 0.0 0.00 0.00 0.00 48 1019.5
20260831203110 84 0.0 0.0 0.00 0.00 0.00 49 1019.5
20260831202126 84 0.0 0.0 0.00 0.00 0.00 48 1019.5
20260831201103 82 90 0.0 1.0 0.00 0.00 0.00 51 1019.8
20260831200059 81 90 0.0 1.0 0.00 0.00 0.00 57 1019.7
20260831195056 80 90 1.0 2.0 0.00 0.00 0.00 61 1020.0
20260831194113 80 90 1.0 2.0 0.00 0.00 0.00 58 1019.9
20260831193049 81 90 2.0 3.0 0.00 0.00 0.00 57 1019.9
20260831192106 84 90 3.0 4.0 0.00 0.00 0.00 51 1020.2
20260831191042 85 90 3.0 5.0 0.00 0.00 0.00 49 1020.4
20260831190039 86 90 3.0 4.0 0.00 0.00 0.00 48 1020.1
20260831185036 87 90 1.0 3.0 0.00 0.00 0.00 47 1020.2